Tracking 27086 objects as of 22-Mar-2023
HD Live streaming from Space Station
objects crossing your sky now

STARLINK-1904

Track STARLINK-1904 now!
10-day predictions
STARLINK-1904 is classified as:


NORAD ID: 48389
Int'l Code: 2021-038AN
Perigee: 553.4 km
Apogee: 555.5 km
Inclination: 53.1 °
Period: 95.6 minutes
Semi major axis: 6925 km
RCS: Unknown
Launch date: May 4, 2021
Source: United States (US)
Launch site: AIR FORCE EASTERN TEST RANGE (AFETR)
Your satellite tracking list
Your tracking list is empty




NASA's NSSDC Master Catalog

Two Line Element Set (TLE):
1 48389U 21038AN  23081.53409519  .00020655  00000-0  14024-2 0  9997
2 48389  53.0528 164.0837 0001522  95.8539 264.2623 15.06375571104634
Source of the keplerian elements: AFSPC